FENGYUN 1C DEB

Satellite information

Favourite Embed

Satellite Type and Status

DEBRISIN ORBIT

Key statistics

Satellite FENGYUN 1C DEB at a glance.

Uptime

9495

Days in orbit

Revolutions

≈ 14.3

Per day

Orbit

SSO

Sun Synchronous Orbit

Inclination

98.8

Latest

Satellite identification and parameters

Extended collection of information and parameters for FENGYUN 1C DEB.

Object identification

Identified? True

Debris? True

Object name: FENGYUN 1C DEB

International designator: 1999-025KT

Object number (NORAD): 29969

Object ID (CCSDS): 29969

Country: PEOPLES REPUBLIC OF CHINA (PRC)

Current information (Y/N): Y

RCS size: SMALL

Orbital parameters

Period: 100.622 minutes

Inclination: 98.7746 deg

SMA: 7166.218 km

Apoapsis: 818.002 km

Periapsis: 758.165 km

RAAN: 209.6219 deg

Eccentricy: 0.0041749

Argument of periapsis: 331.0604 deg

Mean anomaly: 152.1765 deg

Mean motion: 14.31092504 rev/day

Mean motion (dot): 0.00003669 rev/day2

B* drag term: 0.0013954 1/REarth

Two-line elements (TLE)

Creation date: May 8, 2025, 3:01 a.m.

Reference frame: TEME

Reference center: EARTH

Epoch: May 7, 2025, 6:25 p.m. UTC

TLE line 0: 0 FENGYUN 1C DEB

TLE line 1: 1 29969U 99025KT 25127.76767779 .00003669 00000-0 13954-2 0 9991

TLE line 2: 2 29969 98.7746 209.6219 0041749 331.0604 152.1765 14.31092504945283

Live tracking on map

Real-time ground track for satellite FENGYUN 1C DEB.

In-orbit conjunctions

A list of the most updated potential collisions computed for object FENGYUN 1C DEB.

Target Orbit TCA Probability of collision Miss distance Type
SL-3 R/B LEO 2025-05-04 23:28:09 0.001024491 69.0 (m) ROCKET BODY
CZ-6A DEB LEO 2025-02-14 16:20:54 0.0001256106 772.0 (m) DEBRIS
CZ-6A DEB LEO 2024-12-29 10:07:57 0.000268873 927.0 (m) DEBRIS
COSMOS 970 DEB LEO 2024-11-14 14:17:02 0.0004944383 614.0 (m) DEBRIS
SPOT 3 SSO 2024-09-21 07:00:43 0.001129799 17.0 (m) PAYLOAD

Associated space launch

Chinese polar orbiting meteorological satellite

FENGYUN 1C DEB was lifted into orbit during the mission ‘Long March 4B | Feng Yun 1C’, on board a Long March 4B space rocket.

The launch took place on May 10, 1999, 1:33 a.m. from Launch Complex 7.

For more information about the launch, click the button.

Launch to space Long March 4B | Feng Yun 1C
Long March 4B | Feng Yun 1C

Agency: N/A

Status: Launch Successful

Launch date: May 10, 1999, 1:33 a.m. UTC

Rocket: Long March 4B

Launch pad: Launch Complex 7

Location: Taiyuan Satellite Launch Center, People's Republic of China

...

Latest news about this satellite

There are no fresh news available about this satellite. Check back as we update our databases every day.


Newsletter sign-up

Weekly statistics, charts and insights to help you stay on top of the space industry.